Location: Mainz-Finthen
(49.9906°N, 8.1713°E)
Time: 01:48:56
(UTC+00:00)

BlueWalker 3 - Pass Details

Date: 05 December 2022
Orbit: 499 x 517 km, 53.2° (Epoch: 26 January)

Event Time Altitude Azimuth Distance (km) Brightness Sun altitude
Rises 16:34:14 0° 281° (WNW) 2,635 6.6 -10.3°
Reaches altitude 10° 16:36:30 10° 287° (WNW) 1,744 5.5 -10.7°
Maximum altitude 16:40:22 53° 4° (N) 638 2.3 -11.2°
Enters shadow 16:43:08 18° 78° (ENE) 1,326 3.4 -11.7°
